This is the latest recevied weather packets stored in our database for station/object WX9WTF. If no packets are shown the sender has not sent any weather packets the latest 10 day(s).
| Time | Temp. | Humidity | Pressure | Rain* | Wind** | Luminosity | Snow |
|---|---|---|---|---|---|---|---|
| 1777898606 | 17.22° C | 64% | 1005.1 hPa | 0 mm | - | 79 W/m² | - |
| 1777898303 | 17.78° C | 63% | 1005.1 hPa | 0 mm | - | 66 W/m² | - |
| 1777898000 | 17.78° C | 63% | 1005.2 hPa | 0 mm | - | 98 W/m² | - |
| 1777897696 | 17.78° C | 63% | 1005 hPa | 0 mm | - | 109 W/m² | - |
| 1777897393 | 16.67° C | 65% | 1005.1 hPa | 0 mm | - | 100 W/m² | - |
| 1777897089 | 16.67° C | 66% | 1004.8 hPa | 0 mm | - | 77 W/m² | - |
| 1777896786 | 16.11° C | 67% | 1004.8 hPa | 0 mm | - | 56 W/m² | - |
| 1777896484 | 15.56° C | 68% | 1004.8 hPa | 0 mm | - | 41 W/m² | - |
| 1777896180 | 16.11° C | 66% | 1004.8 hPa | 0 mm | - | 36 W/m² | - |
| 1777895878 | 16.11° C | 67% | 1005 hPa | 0 mm | - | 30 W/m² | - |
| 1777895575 | 16.11° C | 66% | 1004.9 hPa | 0 mm | - | 25 W/m² | - |
| 1777895272 | 15.56° C | 66% | 1004.8 hPa | 0 mm | - | 21 W/m² | - |
| 1777894970 | 15.56° C | 67% | 1005.1 hPa | 0 mm | - | 18 W/m² | - |
| 1777894662 | 15.56° C | 67% | 1005.1 hPa | 0 mm | - | 15 W/m² | - |
| 1777894358 | 16.11° C | 65% | 1005.3 hPa | 0 mm | - | 9 W/m² | - |
| 1777894056 | 16.67° C | 64% | 1005.2 hPa | 0 mm | - | 6 W/m² | - |
| 1777893752 | 17.22° C | 62% | 1005 hPa | 0 mm | - | 4 W/m² | - |
| 1777893449 | 17.78° C | 60% | 1005.4 hPa | 0 mm | - | 3 W/m² | - |
| 1777893146 | 17.78° C | 60% | 1005.1 hPa | 0 mm | - | 1 W/m² | - |
| 1777892842 | 17.78° C | 60% | 1005 hPa | 0 mm | - | 1 W/m² | - |
| 1777892538 | 17.78° C | 60% | 1005 hPa | 0 mm | - | 0 W/m² | - |
| 1777892234 | 17.78° C | 60% | 1004.8 hPa | 0 mm | - | 0 W/m² | - |
| 1777891931 | 17.78° C | 60% | 1004.8 hPa | 0 mm | - | 0 W/m² | - |
| 1777891629 | 17.78° C | 59% | 1004.6 hPa | 0 mm | - | 0 W/m² | - |
| 1777891325 | 17.22° C | 59% | 1004.7 hPa | 0 mm | - | 0 W/m² | - |
* Rain latest hour (hover to see other rain measurements)
** Current wind speed in m/s (hover to see current wind gust speed)